Location: Oshawa
(43.9000°N, 78.8670°W)
Time: 19:24:13
(UTC-04:00)

Courier 1B - All Passes

Search period start: 01 September 2014 00:00
Search period end: 11 September 2014 00:00
Orbit: 963 x 1209 km, 28.3° (Epoch: 01 September)

Date Brightness Start Highest point End Pass type
(mag) Time Alt. Az. Time Alt. Az. Time Alt. Az.
01 Sep - 07:22:50 10° S 07:25:53 13° SSE 07:28:53 10° SE daylight
01 Sep - 09:13:31 10° SW 09:18:57 21° S 09:24:10 10° SE daylight
01 Sep - 11:06:45 10° SW 11:12:04 22° S 11:17:10 10° SE daylight
01 Sep - 13:02:03 10° SW 13:04:58 13° SSW 13:07:49 10° S daylight
02 Sep - 08:20:07 10° SSW 08:25:22 20° SSE 08:30:28 10° SE daylight
02 Sep - 10:12:55 10° SW 10:18:31 23° S 10:23:55 10° SE daylight
02 Sep - 12:07:25 10° SW 12:11:32 16° SSW 12:15:31 10° SSE daylight
03 Sep - 07:26:55 10° SSW 07:31:47 18° SSE 07:36:34 10° SE daylight
03 Sep - 09:19:11 10° SW 09:24:57 24° S 09:30:31 10° SE daylight
03 Sep - 11:13:10 10° SW 11:18:03 19° SSW 11:22:45 10° SSE daylight
04 Sep - 06:34:00 10° SSW 06:38:13 16° SSE 06:42:23 10° SE daylight
04 Sep - 08:25:33 10° SW 08:31:21 23° S 08:36:59 10° SE daylight
04 Sep - 10:19:06 10° SW 10:24:31 21° S 10:29:44 10° SE daylight
04 Sep - 12:15:19 10° SW 12:17:24 11° SSW 12:19:28 10° S daylight
05 Sep - 05:41:36 10° S 05:44:40 13° SSE 05:47:43 10° SE visible
05 Sep - 07:32:03 10° SW 07:37:44 22° S 07:43:18 10° ESE daylight
05 Sep - 09:25:11 10° SW 09:30:57 23° S 09:36:31 10° SE daylight
05 Sep - 11:20:10 10° SW 11:23:57 15° SSW 11:27:39 10° S daylight
06 Sep - 06:38:44 10° SSW 06:44:08 20° SSE 06:49:27 10° ESE daylight
06 Sep - 08:31:23 10° SW 08:37:20 24° S 08:43:08 10° SE daylight
06 Sep - 10:25:42 10° SW 10:30:27 18° SSW 10:35:04 10° SSE daylight
07 Sep - 05:45:38 10° SSW 05:50:32 18° SSE 05:55:24 10° ESE visible
07 Sep - 07:37:42 10° SW 07:43:43 24° S 07:49:37 10° SE daylight
07 Sep - 09:31:32 10° WSW 09:36:54 21° SSW 09:42:08 10° SSE daylight
08 Sep - 04:52:53 10° S 04:56:57 15° SSE 05:01:02 10° SE visible
08 Sep - 06:44:09 10° SW 06:50:04 24° S 06:55:57 10° SE daylight
08 Sep - 08:37:32 10° WSW 08:43:19 23° S 08:48:58 10° SE daylight
08 Sep - 10:33:07 10° SW 10:36:19 13° SSW 10:39:28 10° S daylight
09 Sep - 04:00:49 10° S 04:03:25 12° SSE 04:06:03 10° SE visible
09 Sep - 05:50:46 10° SW 05:56:27 22° S 06:02:08 10° ESE visible
09 Sep - 07:43:42 10° SW 07:49:41 24° S 07:55:36 10° SE daylight
09 Sep - 09:38:22 10° SW 09:42:48 16° SSW 09:47:09 10° SSE daylight
10 Sep - 04:57:35 10° SSW 05:02:50 20° SSE 05:08:09 10° ESE visible
10 Sep - 06:49:59 10° SW 06:56:03 25° S 07:02:05 10° SE daylight
10 Sep - 08:44:04 10° WSW 08:49:15 19° SSW 08:54:20 10° SSE daylight
